欢迎来到中国化学会官方网站!

新会员申请 | 登录 | 关于我们

所在位置:中国化学会 > 会议专题 > 中国化学会第30届学术年会

年会报告日程表  下载:中国化学会第30届学术年会日程手册.pdf

会议名称:中国化学会第30届学术年会
分会名称:第四十六分会:燃烧化学
 注:PL-大会特邀报告(Plenary Lecture) I-分会邀请报告(Invited) O-口头报告(Oral) P-墙报(Poster) A-自由交流
2016-07-02
会场:综合教学2号楼A203 主持人:边文生
09:20-09:4546-I-001赵凤起应用于固体推进剂的石墨烯及其复合材料制备技术研究进展添加到我的日程
09:45-10:1046-I-002苏庆运SCRF降低柴油机NOx和颗粒物排放的数值模拟添加到我的日程
10:10-10:3546-I-003杨斌利用快压机测量燃烧相关基元反应速率常数添加到我的日程
会场:综合教学2号楼A203 主持人:田维全
10:50-11:1546-I-004钟北京不同结构的C7燃料层流火焰传播速度测量与动力学分析添加到我的日程
11:15-11:4046-I-005游小清基于能量的分块方法研究生物柴油大分子脱氢反应添加到我的日程
11:40-11:5546-O-001金钟燃烧动力学数据库在计算模拟平台中的应用添加到我的日程
11:55-12:1046-O-002邰向阳热裂解色质联用技术应用于燃烧行为的机理研究添加到我的日程
会场:综合教学2号楼A203 主持人:卫立夏
13:30-13:5546-I-006方德彩长链分子熵的计算添加到我的日程
13:55-14:2046-I-007李辉分子振动的非谐性,振动模间的耦合及多参考效应 对速率常数的影响添加到我的日程
14:20-14:4546-I-008张凤RRKM/ME方法的速率常数的参数不确定性评估添加到我的日程
14:45-15:0046-O-003赵红梅甲醛在丁烯和氧原子反应中的形成机理添加到我的日程
15:00-15:1546-O-004黄灿丁烯自由基裂解与异构的动力学计算与模型研究添加到我的日程
15:15-15:3046-O-005周雪瑶羟基进攻丁烯酸甲酯反应动力学理论计算添加到我的日程
会场:综合教学2号楼 主持人:李象远
15:30-17:3046-P-001李颖丽十氢化萘中低温燃烧反应路径的量化计算添加到我的日程
15:30-17:3046-P-002韩冬雪二甲醚-空气预混燃烧中间体及激发态甲醛光谱研究添加到我的日程
15:30-17:3046-P-003孙晓慧氢过氧烷基过氧自由基协同消除反应类速率常数的计算添加到我的日程
15:30-17:3046-P-004陈玉碳氢燃料耦合裂解反应的流动换热过程数值研究添加到我的日程
15:30-17:3046-P-005刘星基于量子化学理论二硝酰胺铵(AND)热力学参数计算添加到我的日程
15:30-17:3046-P-006王瑛固体推进剂燃烧机理诊断方法及其燃烧物理模型的建立添加到我的日程
15:30-17:3046-P-007夏文文CH3OCH2+O2→2CH2O+OH中的两个单分子反应过程研究添加到我的日程
15:30-17:3046-P-008彭莉娟RDX及其衍生物的热解及含碳团簇形成的ReaxFF反应分子动力学模拟添加到我的日程
15:30-17:3046-P-009姜菡雨锆粉的改性制备及在固体推进剂中的应用研究添加到我的日程
15:30-17:3046-P-010李世俊1,3-偶极环加成的动力学研究:溶液熵计算添加到我的日程
15:30-17:3046-P-011郭力CL-20/TNT含能共晶热分解的ReaxFF MD模拟添加到我的日程
15:30-17:3046-P-012于洪晶甲基肼高温燃烧分解反应的非谐振效应添加到我的日程
15:30-17:3046-P-013王秧1,3-丁二烯与HO2反应的动力学理论研究.添加到我的日程
15:30-17:3046-P-014曹晓梅丙烯基自由基(.C3H5)与O2反应机理的理论研究添加到我的日程
15:30-17:3046-P-015陈芳芳氢过氧烷烃与羟基自由基的氢提取反应类的热动力学参数计算添加到我的日程
15:30-17:3046-P-016张天昊超临界压力下苯和环己烷混合物裂解反应研究添加到我的日程
15:30-17:3046-P-017王时野低速二冲程船用柴油机二甲醚和甲烷的燃烧以及NOx排放特性的研究添加到我的日程
15:30-17:3046-P-018王中正Mo-promoted catalysts for supercritical n-Decane cracking添加到我的日程
15:30-17:3046-P-019李帆碳烟成核过程中菲分子碰撞的分子动力学研究添加到我的日程
15:30-17:3046-P-020李东艳温度和压力相关反应CH2CH2OH+HO2速率常数计算添加到我的日程
15:30-17:3046-P-021康利强燃烧过程中氮氧化物的生成机理添加到我的日程
15:30-17:3046-P-022柳朋浩正癸烷裂解特性的实验研究及模拟验证添加到我的日程
15:30-17:3046-P-023魏明锐环戊二烯到萘生长路径的密度泛函研究添加到我的日程
15:30-17:3046-P-024雷志良超临界压力下航空燃料在圆管和方管中流动的异同添加到我的日程
15:30-17:3046-P-025席双惠甲苯燃烧简化模型的构建添加到我的日程
15:30-17:3046-P-026李军燃烧和环境中若干关键体系的理论研究添加到我的日程
15:30-17:3046-P-027刘岳曦正丙苯的低温氧化动力学研究添加到我的日程
15:30-17:3046-P-028王树雷喷气燃料高温热性能研究添加到我的日程
15:30-17:3046-P-029刘斌镧改性β分子筛对甲基环己烷的催化裂解添加到我的日程
15:30-17:3046-P-030王丙寅航空煤油替代燃料低温氧化研究添加到我的日程
15:30-17:3046-P-031周秀华Zn-Mg-Al水滑石对低密度聚乙烯性能的影响添加到我的日程
15:30-17:3046-P-032沈铁军氟氯酰与复合燃料反应热的理论和实验研究添加到我的日程
15:30-17:3046-P-033孟庆慧乙酸甲酯低温氧化反应动力学研究添加到我的日程
15:30-17:3046-P-034谈宁馨十氢化萘高温燃烧机理构建及动力学模拟添加到我的日程
15:30-17:3046-P-035王雨正十烷高温热裂解及结焦前驱体形成研究添加到我的日程
15:30-17:3046-P-036姚倩Rate Rules for Intramolecular H-migrations of Hydroperoxyalkylperoxy Radicals in Low-Temperature添加到我的日程
15:30-17:3046-P-037王全德不饱和C6甲酯燃料与HO2自由基氢提取反应及后续单分子裂解反应的动力学研究添加到我的日程
15:30-17:3046-P-038丁杨正丁醇在低转速二冲程内燃机的NOx燃烧特性分析添加到我的日程
15:30-17:3046-P-039张尚宏金属基体表面TiN涂层的制备及其对燃料裂解抗结焦性能研究添加到我的日程
会场:综合教学2号楼
15:35-17:3546-A-001裴庆GAP/ADN/Al膏体燃料的燃烧特性研究添加到我的日程
2016-07-03
会场:综合教学2号楼A203 主持人:王树雷
09:00-09:2546-I-009高加力发展和应用全量子化学反应力场添加到我的日程
09:25-09:5046-I-010李晓霞大规模反应分子动力学模拟的启示添加到我的日程
09:50-10:0546-O-006张婷婷多种木质素模型化合物的ReaxFF MD反应分子动力学模拟添加到我的日程
10:05-10:2046-O-007刘晓龙生物油高温氧化动力学性质的ReaxFF MD研究添加到我的日程
10:20-10:3546-O-008韩嵩碳烟前驱体多环芳烃分子结构演化与反应机理的ReaxFF MD探索添加到我的日程
会场:综合教学2号楼A203 主持人:马海涛
10:50-11:1546-I-011韩克利碳氢燃料燃烧动力学机理研究添加到我的日程
11:15-11:4046-I-012李泽荣碳氢燃料热裂解核心机理的构建与模拟验证添加到我的日程
11:40-11:5546-O-009张李东酯类燃料燃烧动力学的理论研究添加到我的日程
11:55-12:1046-O-010王静波航空燃料燃烧反应机理的自动生成添加到我的日程
会场:综合教学2号楼A203 主持人:许国梁
13:30-13:5546-I-013阚瑞峰TDLAS燃烧流场诊断方法研究添加到我的日程
13:55-14:2046-I-014李萍正壬烷/空气宽温度范围自点火特性研究添加到我的日程
14:20-14:4546-I-015胡志云燃烧激光诊断技术研究进展添加到我的日程
14:45-15:0046-O-011张儒征丙酮-丁醇-乙醇(ABE)层流预混火焰的组分诊断与模型分析添加到我的日程
会场:综合教学2号楼A203 主持人:王大喜
15:15-15:4046-I-016董文锐OH+HO2 反应速率常数的测量添加到我的日程
15:40-16:0546-I-017田振玉三甲苯的低温燃烧化学研究添加到我的日程
16:05-16:2046-O-012高振华DMC/正庚烷着火延迟期的测量和化学反应动力学模型研究添加到我的日程
16:20-16:3546-O-013张昌华RP-3煤油高温富油燃烧碳烟产率的激波管研究添加到我的日程
16:35-16:5046-O-014曹文杰煤基喷气燃料适用性研究添加到我的日程
16:50-17:0546-O-015宋立国二冲程甲烷机的氮氧化物产生机理研究添加到我的日程
17:05-17:2046-O-016王洋正庚烷低温氧化产物对其在发动机缸内燃烧过程的影响的理论研究添加到我的日程
17:20-17:3546-O-017王旭东凹腔支板火焰稳定器湍流燃烧的大涡模拟研究添加到我的日程
2016-07-04
会场:综合教学2号楼A203 主持人:王志银
09:00-09:2546-I-018孙淮分子动力学模拟三甲基铝的热解和氧化添加到我的日程
09:25-09:5046-I-019姚丽船舶燃烧尾气中污染物在空化反应器中的反应机理研究添加到我的日程
09:50-10:0546-O-018熊绍专甲氧基与C1-C4烷烃氢提取反应的动力学添加到我的日程
10:05-10:2046-O-019林圣强基于扩展型傅立叶敏感性测试方法的化学反应机理简化添加到我的日程
10:20-10:3546-O-020郑绍辉应用偏向性量子动力学、通用化学反应坐标和图形理论自动化获取乙烯燃烧机理添加到我的日程
会场:综合教学2号楼A203 主持人:马海涛
10:50-11:1546-I-020樊红军煤中的弱键合结构及其热解机制初探添加到我的日程
11:15-11:3046-O-021张海霞基于流化床的高钠煤气化技术研发进展添加到我的日程
11:30-11:4546-O-022喻鑫准东煤焦及煤-焦混合物燃烧特性研究添加到我的日程
11:45-12:0046-O-023郭学文准东煤流化床气化中硫、氮的迁移特性研究添加到我的日程
会场:综合教学2号楼A203 主持人:吉琳
13:30-13:5546-I-021方文军超支化嵌段聚合物对正十三烷热裂解结焦的抑制作用研究添加到我的日程
13:55-14:2046-I-022Guozhu LiuDirect Measurement of T-P-dependent Reaction Kinetics and Branching of Vinyl radical +Acetylene添加到我的日程
14:20-14:3546-O-024高红旭自熄火固体推进剂的燃烧性能添加到我的日程
14:35-14:5046-O-025朱权钛化物涂层制备及抑焦效果研究添加到我的日程
14:50-15:0546-O-026Juanqin LiRMG Simulation on the formation of C7H7 isomers through the fulvenallene + H reaction添加到我的日程
会场:综合教学2号楼A203 主持人:郭永胜
15:20-15:4546-I-023丛昱乙醇辅助碳氢燃料催化吸热裂解反应的初步研究添加到我的日程
15:45-16:0046-O-027张其翼碳氢燃料不同压力下高温裂解换热性能研究添加到我的日程
16:00-16:1546-O-028赵静碳氢燃料的催化燃烧研究添加到我的日程
16:15-16:3046-O-029刘兴华铝基液固复合燃料的热解行为研究添加到我的日程
16:30-16:4546-O-030唐灿铅、锌氯化物共存条件下1Cr18Ni9Ti不锈钢高温腐蚀机理添加到我的日程
16:45-17:0046-O-031李斌ISO和HCI抽吸模式对卷烟燃吸温度分布及区域特征分析添加到我的日程

  报告《,目前您的日程表中共有个报告。

 

截止日期

会议注册:2016年5月15日

论文征集:2016年4月15日

会前缴费:2016年5月15日

忘记密码

中国化学会秘书处

地  址:北京市中关村北一街2号
联系电话:+86-10-82449177
邮政编码:100190


传  真:+86-10-62568157
网  址:http://www.chemsoc.org.cn


个人会员:qiaoqinzhao@iccas.ac.cn
学术交流:cmdeng@iccas.ac.cn
国际事务:hanlidong@iccas.ac.cn
化学竞赛:wlbai@iccas.ac.cn


学术奖励:yuehe@iccas.ac.cn
期  刊:haolinxiao@iccas.ac.cn
单位会员:wangyr@iccas.ac.cn
产学研合作与促进:binjiao@iccas.ac.cn


All Rights Reserved by the Chinese Chemical Society 中国化学会 版权所有 京ICP备05002797号

门户网站、会员系统、会议系统 技术支持:深圳市学术科技有限公司 www.szac.cn